Hourly Weather Gogoliha

Today, 17 June, Thursday

Time Temperature Precipitation Wind Pressure Humidity
00:00 +17°C° 0.6 mm 6 mps 748 mmHg 95%
01:00 +17°C° 0 mm 6 mps 749 mmHg 95%
02:00 +16°C° 0 mm 6 mps 749 mmHg 95%
03:00 +15°C° 0 mm 6 mps 750 mmHg 94%
04:00 +15°C° 0 mm 6 mps 750 mmHg 91%
05:00 +15°C° 0 mm 6 mps 751 mmHg 88%
06:00 +15°C° 0 mm 5 mps 751 mmHg 86%
07:00 +16°C° 0 mm 6 mps 752 mmHg 76%
08:00 +17°C° 0 mm 6 mps 752 mmHg 67%
09:00 +18°C° 0 mm 7 mps 753 mmHg 58%
10:00 +20°C° 0 mm 7 mps 753 mmHg 56%
11:00 +21°C° 0 mm 6 mps 754 mmHg 54%
12:00 +21°C° 0 mm 6 mps 754 mmHg 51%
13:00 +22°C° 0 mm 6 mps 754 mmHg 53%
14:00 +22°C° 0 mm 5 mps 754 mmHg 56%
15:00 +22°C° 0 mm 5 mps 754 mmHg 58%
16:00 +21°C° 0 mm 4 mps 754 mmHg 61%
17:00 +21°C° 0 mm 3 mps 755 mmHg 65%
18:00 +20°C° 0 mm 3 mps 755 mmHg 69%
19:00 +19°C° 0 mm 3 mps 755 mmHg 69%
20:00 +18°C° 0 mm 2 mps 756 mmHg 68%
21:00 +17°C° 0 mm 2 mps 756 mmHg 68%
22:00 +16°C° 0 mm 3 mps 756 mmHg 70%
23:00 +14°C° 0 mm 3 mps 756 mmHg 72%

Tomorrow, 18 June, Friday

Time Temperature Precipitation Wind Pressure Humidity
00:00 +13°C° 0 mm 4 mps 757 mmHg 74%
01:00 +12°C° 0 mm 3 mps 757 mmHg 75%
02:00 +11°C° 0 mm 3 mps 758 mmHg 77%
03:00 +11°C° 0 mm 3 mps 758 mmHg 78%
04:00 +11°C° 0 mm 3 mps 759 mmHg 76%
05:00 +12°C° 0 mm 4 mps 759 mmHg 74%
06:00 +13°C° 0 mm 4 mps 759 mmHg 71%
07:00 +14°C° 0 mm 5 mps 760 mmHg 66%
08:00 +15°C° 0 mm 5 mps 760 mmHg 61%
09:00 +16°C° 0 mm 6 mps 760 mmHg 56%
10:00 +16°C° 0 mm 6 mps 760 mmHg 55%
11:00 +17°C° 0 mm 6 mps 760 mmHg 53%
12:00 +19°C° 0 mm 6 mps 760 mmHg 52%
13:00 +19°C° 0 mm 6 mps 760 mmHg 52%
14:00 +19°C° 0 mm 5 mps 760 mmHg 52%
15:00 +19°C° 0 mm 5 mps 760 mmHg 52%
16:00 +19°C° 0 mm 4 mps 760 mmHg 57%
17:00 +19°C° 0 mm 3 mps 760 mmHg 62%
18:00 +18°C° 0 mm 2 mps 760 mmHg 67%
19:00 +17°C° 0 mm 2 mps 761 mmHg 69%
20:00 +16°C° 0 mm 1 mps 761 mmHg 71%
21:00 +14°C° 0 mm 1 mps 761 mmHg 73%
22:00 +14°C° 0 mm 1 mps 761 mmHg 73%
23:00 +13°C° 0 mm 1 mps 761 mmHg 72%

Day after tomorrow, 19 June, Saturday

Time Temperature Precipitation Wind Pressure Humidity
00:00 +13°C° 0 mm 1 mps 761 mmHg 72%
01:00 +13°C° 0 mm 1 mps 761 mmHg 72%
02:00 +13°C° 0 mm 2 mps 761 mmHg 73%
03:00 +12°C° 0 mm 2 mps 761 mmHg 73%
04:00 +14°C° 0 mm 2 mps 762 mmHg 73%
05:00 +14°C° 0 mm 3 mps 762 mmHg 73%
06:00 +16°C° 0 mm 3 mps 762 mmHg 73%
07:00 +18°C° 0 mm 3 mps 761 mmHg 69%
08:00 +19°C° 0 mm 4 mps 761 mmHg 65%
09:00 +21°C° 0 mm 5 mps 761 mmHg 61%
10:00 +22°C° 0 mm 5 mps 761 mmHg 59%
11:00 +22°C° 0 mm 5 mps 760 mmHg 58%
12:00 +23°C° 0 mm 5 mps 760 mmHg 57%
13:00 +24°C° 0 mm 6 mps 760 mmHg 58%
14:00 +24°C° 0 mm 6 mps 759 mmHg 60%
15:00 +26°C° 0 mm 6 mps 759 mmHg 61%
16:00 +26°C° 0 mm 5 mps 758 mmHg 65%
17:00 +25°C° 0 mm 5 mps 758 mmHg 69%
18:00 +25°C° 0 mm 4 mps 758 mmHg 73%
19:00 +22°C° 0 mm 4 mps 758 mmHg 79%
20:00 +21°C° 0 mm 4 mps 758 mmHg 85%
21:00 +19°C° 0 mm 3 mps 758 mmHg 91%
22:00 +19°C° 0 mm 3 mps 758 mmHg 92%
23:00 +19°C° 0 mm 4 mps 758 mmHg 92%

20 June, Sunday

Time Temperature Precipitation Wind Pressure Humidity
00:00 +18°C° 0 mm 4 mps 758 mmHg 93%
01:00 +18°C° 0 mm 4 mps 758 mmHg 93%
02:00 +18°C° 0 mm 3 mps 758 mmHg 93%
03:00 +17°C° 0 mm 3 mps 758 mmHg 94%
04:00 +18°C° 0 mm 3 mps 758 mmHg 90%
05:00 +20°C° 0 mm 4 mps 758 mmHg 87%
06:00 +21°C° 0 mm 4 mps 758 mmHg 84%
07:00 +22°C° 0 mm 4 mps 758 mmHg 79%
08:00 +25°C° 0 mm 4 mps 758 mmHg 75%
09:00 +26°C° 0 mm 4 mps 758 mmHg 70%
10:00 +27°C° 0 mm 5 mps 758 mmHg 67%
11:00 +28°C° 0 mm 5 mps 758 mmHg 63%
12:00 +29°C° 0 mm 5 mps 758 mmHg 60%
13:00 +29°C° 0 mm 5 mps 758 mmHg 59%
14:00 +29°C° 0 mm 4 mps 758 mmHg 59%
15:00 +29°C° 0 mm 4 mps 757 mmHg 58%
16:00 +29°C° 0 mm 4 mps 757 mmHg 63%
17:00 +28°C° 0 mm 3 mps 757 mmHg 68%
18:00 +27°C° 0 mm 3 mps 757 mmHg 74%
19:00 +26°C° 0 mm 3 mps 757 mmHg 76%
20:00 +25°C° 0 mm 3 mps 757 mmHg 78%
21:00 +24°C° 0 mm 2 mps 757 mmHg 81%
22:00 +24°C° 0 mm 2 mps 757 mmHg 83%
23:00 +23°C° 0 mm 2 mps 757 mmHg 84%

21 June, Monday

Time Temperature Precipitation Wind Pressure Humidity
00:00 +23°C° 0 mm 2 mps 757 mmHg 86%
01:00 +23°C° 0 mm 2 mps 758 mmHg 87%
02:00 +21°C° 0 mm 2 mps 758 mmHg 87%
03:00 +22°C° 0 mm 1 mps 758 mmHg 88%
04:00 +23°C° 0 mm 1 mps 758 mmHg 87%
05:00 +23°C° 0 mm 1 mps 758 mmHg 86%
06:00 +23°C° 0 mm 2 mps 758 mmHg 85%
07:00 +24°C° 0 mm 2 mps 758 mmHg 80%
08:00 +25°C° 0 mm 2 mps 758 mmHg 76%
09:00 +26°C° 0 mm 3 mps 758 mmHg 72%
10:00 +27°C° 0 mm 3 mps 758 mmHg 68%
11:00 +28°C° 0 mm 3 mps 758 mmHg 65%
12:00 +29°C° 0 mm 2 mps 758 mmHg 61%
13:00 +29°C° 0 mm 3 mps 757 mmHg 60%
14:00 +29°C° 0 mm 3 mps 757 mmHg 59%
15:00 +30°C° 0 mm 3 mps 757 mmHg 58%
16:00 +29°C° 0.2 mm 2 mps 757 mmHg 64%
17:00 +28°C° 0.2 mm 2 mps 757 mmHg 71%
18:00 +27°C° 0.2 mm 2 mps 757 mmHg 77%
19:00 +25°C° 0 mm 1 mps 757 mmHg 79%
20:00 +24°C° 0 mm 1 mps 756 mmHg 82%
21:00 +23°C° 0 mm 1 mps 756 mmHg 84%
22:00 +22°C° 0 mm 1 mps 756 mmHg 85%
23:00 +22°C° 0 mm 1 mps 756 mmHg 87%

22 June, Tuesday

Time Temperature Precipitation Wind Pressure Humidity
00:00 +20°C° 0 mm 2 mps 756 mmHg 88%
01:00 +20°C° 0 mm 2 mps 756 mmHg 88%
02:00 +19°C° 0 mm 2 mps 756 mmHg 89%
03:00 +19°C° 0 mm 2 mps 756 mmHg 89%
04:00 +20°C° 0 mm 2 mps 756 mmHg 88%
05:00 +21°C° 0 mm 2 mps 756 mmHg 86%
06:00 +22°C° 0 mm 3 mps 757 mmHg 84%
07:00 +24°C° 0 mm 3 mps 757 mmHg 77%
08:00 +26°C° 0 mm 3 mps 756 mmHg 71%
09:00 +27°C° 0 mm 3 mps 756 mmHg 64%
10:00 +28°C° 0 mm 3 mps 756 mmHg 62%
11:00 +29°C° 0 mm 3 mps 756 mmHg 59%
12:00 +30°C° 0 mm 4 mps 756 mmHg 56%
13:00 +30°C° 0.1 mm 3 mps 756 mmHg 56%
14:00 +30°C° 0.1 mm 3 mps 756 mmHg 55%
15:00 +30°C° 0.1 mm 3 mps 756 mmHg 55%
16:00 +29°C° 0.3 mm 3 mps 756 mmHg 63%
17:00 +28°C° 0.3 mm 3 mps 756 mmHg 71%
18:00 +26°C° 0.3 mm 3 mps 756 mmHg 79%
19:00 +25°C° 0.1 mm 2 mps 756 mmHg 81%
20:00 +24°C° 0.1 mm 2 mps 756 mmHg 83%
21:00 +23°C° 0.1 mm 2 mps 756 mmHg 84%
22:00 +23°C° 0.1 mm 2 mps 756 mmHg 86%
23:00 +21°C° 0.1 mm 2 mps 756 mmHg 87%
Show more

We Need Your Consent

Meteoprog and our Service Providers may store and access personal data such as cookies, device identifiers or other similar technologies on your device and process such data to personalise content and ads, as well as provide social media features and to analyse the traffic.

  • Store and/or access information on your device

    Cookies, device identifiers or other information can be stored or accessed on your device for the purposes indicated above.

  • Personalised ads and content, ad and content measurement, audience insights, and products development

    Ads and content can be personalised based on a profile. More data can be added to better personalise ads and content. Ad and content performance can be measured. Insights about the audience who saw the ads and content can be derived. Such data can be used to develop or improve user’s experience, systems and software.

By clicking ‘I Agree’ you will allow the use of indicated cookies, device identifiers, web beacons or other similar technologies. Your settings can be changed in the browser on your device.

For certain purposes, legitimate interests may be relied on, rather than consent. You can read more about this in our Privacy and Cookie Policy.